Location: Baller�as
(41.9020°N, 0.1554°W)
Time: 10:08:21
(UTC+00:00)

USA 267 - Pass Details

Date: 10 August 2020
Orbit: 1102 x 1106 km, 123.0° (Epoch: 18 September)

Event Time Altitude Azimuth Distance (km) Brightness Sun altitude
Rises 19:59:17 0° 50° (NE) 3,926 6.0 -9.5°
Reaches altitude 10° 20:01:51 10° 55° (NE) 2,966 5.3 -9.9°
Maximum altitude 20:08:16 57° 133° (SE) 1,287 3.3 -11.0°
Drops below altitude 10° 20:14:40 10° 211° (SSW) 2,955 5.5 -12.0°
Sets 20:17:12 0° 215° (SW) 3,910 6.2 -12.3°
